Location: Borea
(45.6167°N, 23.0167°E)
Time: 00:35:31
(UTC+00:00)

OPS 8068 - Pass Details

Date: 25 February 2024
Orbit: 631 x 963 km, 98.3° (Epoch: 13 April)

Event Time Altitude Azimuth Distance (km) Brightness Sun altitude
Rises 01:50:23 0° 122° (ESE) 2,925 ? -35.7°
Reaches altitude 10° 01:53:06 10° 103° (ESE) 2,040 ? -35.3°
Maximum altitude 01:56:05 18° 60° (ENE) 1,603 ? -34.8°
Drops below altitude 10° 01:59:11 10° 18° (NNE) 2,128 ? -34.3°
Sets 02:02:05 0° 0° (N) 3,101 ? -33.9°
